Weather History for Barking Sands, HI

Change the Weather History Date:

Monday, November 18, 2013

  Actual Average Record
Temperature  
Mean Temperature 76 °F -  
Max Temperature 82 °F 84 °F 87 °F (1966)
Min Temperature 70 °F 65 °F 61 °F (1949)
Cooling Degree Days 11    
Growing Degree Days 26 (Base 50)    
Moisture  
Dew Point 65 °F    
Average Humidity 69    
Maximum Humidity 81    
Minimum Humidity 54    
Precipitation  
Precipitation 0.00 in - - ()
Sea Level Pressure  
Sea Level Pressure 29.93 in    
Wind  
Wind Speed 3 mph (ESE)    
Max Wind Speed 9 mph    
Max Gust Speed -    
Visibility 10 miles    
Events      
Averages and records for this station are not official NWS values.
T = Trace of Precipitation, MM = Missing Value Source: NWS Daily Summary

Daily Weather History Graph

Daily Weather History Graph

Search for Another Location

Airport:

Trip Planner

Search our weather history database for the weather conditions in past years. The results will help you decide how hot, cold, wet, or windy it might be!

Date:

Astronomy

Nov. 18, 2013 Rise Set
Actual Time 6:53 AM HST 5:55 PM HST
Civil Twilight 6:29 AM HST 6:19 PM HST
Nautical Twilight 6:02 AM HST 6:46 PM HST
Astronomical Twilight 5:35 AM HST 7:13 PM HST
Moon 7:08 PM HST (11/18) 7:50 AM HST (11/18)
Length of Visible Light 11h 49m
Length of Day
11h 02m
Full, 98% of the Moon is Illuminated
Nov 18
Full
Nov 25
Last Quarter
Dec 2
New
Dec 9
First Quarter
Dec 16
Full

Hourly Weather History & Observations

Time (HST) Temp. Heat Index Dew Point Humidity Pressure Visibility Wind Dir Wind Speed Gust Speed Precip Events Conditions
12:56 AM 72.0 °F - 62.1 °F 71% 29.92 in 10.0 mi Calm Calm - N/A   Clear
1:56 AM 71.1 °F - 61.0 °F 70% 29.93 in 10.0 mi East 3.5 mph - N/A   Overcast
2:56 AM 71.1 °F - 61.0 °F 70% 29.91 in 10.0 mi East 3.5 mph - N/A   Clear
3:56 AM 70.0 °F - 61.0 °F 73% 29.92 in 10.0 mi East 4.6 mph - N/A   Partly Cloudy
4:56 AM 72.0 °F - 61.0 °F 68% 29.91 in 10.0 mi ESE 4.6 mph - N/A   Partly Cloudy
5:56 AM 72.0 °F - 61.0 °F 68% 29.91 in 10.0 mi Calm Calm - N/A   Clear
6:56 AM 71.1 °F - 62.1 °F 73% 29.93 in 10.0 mi SE 4.6 mph - N/A   Scattered Clouds
7:56 AM 75.0 °F - 62.1 °F 64% 29.94 in 10.0 mi NNE 3.5 mph - N/A   Overcast
8:56 AM 75.9 °F - 64.0 °F 67% 29.96 in 10.0 mi Calm Calm - 0.00 in   Overcast
9:56 AM 79.0 °F - 68.0 °F 69% 29.97 in 10.0 mi ESE 5.8 mph - 0.00 in   Overcast
10:56 AM 79.0 °F - 68.0 °F 69% 29.96 in 10.0 mi SE 9.2 mph - N/A   Mostly Cloudy
11:56 AM 80.1 °F 82.1 °F 66.0 °F 62% 29.94 in 10.0 mi SE 3.5 mph - N/A   Overcast
12:56 PM 81.0 °F 83.3 °F 66.9 °F 62% 29.91 in 10.0 mi Variable 3.5 mph - N/A   Mostly Cloudy
1:56 PM 82.9 °F 84.6 °F 64.9 °F 54% 29.88 in 10.0 mi South 6.9 mph - N/A   Partly Cloudy
2:56 PM 82.9 °F 85.8 °F 68.0 °F 60% 29.88 in 10.0 mi Calm Calm - N/A   Partly Cloudy
3:56 PM 82.0 °F 85.5 °F 69.1 °F 65% 29.88 in 10.0 mi NNW 9.2 mph - N/A   Mostly Cloudy
4:56 PM 81.0 °F 84.1 °F 69.1 °F 67% 29.89 in 10.0 mi Variable 3.5 mph - N/A   Clear
5:56 PM 79.0 °F - 69.1 °F 72% 29.91 in 10.0 mi Calm Calm - N/A   Clear
6:56 PM 75.9 °F - 68.0 °F 76% 29.93 in 10.0 mi Calm Calm - N/A   Clear
7:56 PM 73.9 °F - 66.9 °F 79% 29.95 in 10.0 mi East 3.5 mph - N/A   Clear
8:56 PM 73.9 °F - 64.0 °F 71% 29.96 in 10.0 mi East 3.5 mph - N/A   Clear
9:56 PM 70.0 °F - 64.0 °F 81% 29.96 in 10.0 mi SE 4.6 mph - N/A   Clear
10:56 PM 73.0 °F - 64.0 °F 73% 29.97 in 10.0 mi SE 5.8 mph - N/A   Clear
11:56 PM 73.9 °F - 66.0 °F 76% 29.97 in 10.0 mi SE 6.9 mph - N/A   Clear